TimeEST,TemperatureF,Dew PointF,Humidity,Sea Level PressureIn,VisibilityMPH,Wind Direction,Wind SpeedMPH,Gust SpeedMPH,PrecipitationIn,Events,Conditions,WindDirDegrees,DateUTC
12:53 AM,41.0,34.0,76,30.39,10.0,Variable,3.5,-,0.00,Rain,Light Rain,0,2012-11-14 05:53:00
1:53 AM,39.9,34.0,79,30.40,10.0,NNW,3.5,-,0.00,,Overcast,340,2012-11-14 06:53:00
2:34 AM,39.2,33.8,81,30.39,10.0,NNW,4.6,-,N/A,,Overcast,330,2012-11-14 07:34:00
2:53 AM,39.9,34.0,79,30.40,10.0,NW,3.5,-,N/A,,Overcast,320,2012-11-14 07:53:00
3:53 AM,39.9,33.1,77,30.40,10.0,Variable,3.5,-,N/A,,Overcast,0,2012-11-14 08:53:00
4:13 AM,39.2,32.0,75,30.41,10.0,Variable,4.6,-,N/A,,Overcast,0,2012-11-14 09:13:00
4:53 AM,39.9,32.0,73,30.43,10.0,NNW,4.6,-,N/A,,Overcast,330,2012-11-14 09:53:00
5:53 AM,39.0,32.0,76,30.43,10.0,NNW,5.8,-,N/A,,Overcast,330,2012-11-14 10:53:00
6:53 AM,39.0,32.0,76,30.46,10.0,Variable,4.6,-,N/A,,Overcast,0,2012-11-14 11:53:00
7:53 AM,43.0,32.0,65,30.48,10.0,North,8.1,-,N/A,,Clear,10,2012-11-14 12:53:00
8:53 AM,44.1,30.0,58,30.48,10.0,North,13.8,25.3,N/A,,Clear,360,2012-11-14 13:53:00
9:53 AM,46.0,32.0,58,30.48,10.0,North,10.4,-,N/A,,Partly Cloudy,10,2012-11-14 14:53:00
10:53 AM,46.9,32.0,56,30.47,10.0,North,8.1,25.3,N/A,,Scattered Clouds,10,2012-11-14 15:53:00
11:53 AM,46.9,32.0,56,30.45,10.0,NNE,8.1,23.0,N/A,,Mostly Cloudy,20,2012-11-14 16:53:00
12:53 PM,45.0,30.0,56,30.45,10.0,North,12.7,23.0,N/A,,Mostly Cloudy,10,2012-11-14 17:53:00
1:53 PM,44.1,28.9,55,30.45,10.0,North,13.8,26.5,N/A,,Mostly Cloudy,10,2012-11-14 18:53:00
2:53 PM,45.0,30.0,56,30.44,10.0,NNE,9.2,-,N/A,,Partly Cloudy,20,2012-11-14 19:53:00
3:53 PM,43.0,28.0,56,30.45,10.0,North,10.4,17.3,N/A,,Clear,10,2012-11-14 20:53:00
4:53 PM,41.0,28.0,60,30.46,10.0,North,5.8,-,N/A,,Clear,10,2012-11-14 21:53:00
5:53 PM,39.0,28.0,65,30.47,10.0,North,3.5,-,N/A,,Clear,350,2012-11-14 22:53:00
6:53 PM,37.0,28.0,70,30.47,10.0,NNW,3.5,-,N/A,,Clear,340,2012-11-14 23:53:00
7:53 PM,36.0,28.0,73,30.45,10.0,NNW,4.6,-,N/A,,Clear,340,2012-11-15 00:53:00
8:53 PM,36.0,28.0,73,30.45,10.0,NNW,3.5,-,N/A,,Clear,340,2012-11-15 01:53:00
9:53 PM,34.0,28.0,79,30.46,10.0,NW,3.5,-,N/A,,Mostly Cloudy,310,2012-11-15 02:53:00
10:53 PM,36.0,28.0,73,30.43,10.0,Variable,3.5,-,N/A,,Mostly Cloudy,0,2012-11-15 03:53:00
11:53 PM,37.0,28.9,73,30.42,10.0,NNW,3.5,-,N/A,,Mostly Cloudy,330,2012-11-15 04:53:00